Location: Cz?stochówka
(50.8142°N, 19.0915°E)
Time: 09:16:25
(UTC+00:00)

NOAA 12 - Pass Details

Date: 13 January 2026
Orbit: 793 x 813 km, 98.6° (Epoch: 18 February)

Event Time Altitude Azimuth Distance (km) Brightness Sun altitude
Rises 03:49:15 0° 16° (NNE) 3,308 7.5 -26.3°
Reaches altitude 10° 03:51:37 10° 19° (NNE) 2,373 6.7 -25.9°
Maximum altitude 03:56:51 70° 103° (ESE) 846 4.3 -25.1°
Drops below altitude 10° 04:02:02 10° 187° (S) 2,357 6.5 -24.3°
Sets 04:04:22 0° 190° (S) 3,283 7.2 -23.9°
